Stevens Point, WI

4:38 AM CDT on October 22, 2019 (GMT -0500)
Stevens Point Municipal

Weather History for KSTE - August, 2019

Change the Weather History Date:

Saturday, August 31, 2019

  Actual Average Record
Temperature  
Mean Temperature 54 °F -  
Max Temperature 68 °F 76 °F 91 °F (1953)
Min Temperature 41 °F 54 °F 41 °F (2019)
Degree Days  
Heating Degree Days 10    
Growing Degree Days 4 (Base 50)    
Moisture  
Dew Point 47 °F    
Average Humidity 78    
Maximum Humidity 100    
Minimum Humidity 44    
Precipitation  
Precipitation 0.00 in - - ()
Sea Level Pressure  
Sea Level Pressure 30.29 in    
Wind  
Wind Speed 2 mph (SSE)    
Max Wind Speed 12 mph    
Max Gust Speed -    
Visibility 10 miles    
Events      
Averages and records for this station are not official NWS values.
T = Trace of Precipitation, MM = Missing Value Source: NWS Daily Summary

Daily Weather History Graph

Daily Weather History Graph

Search for Another Location

Airport or City:

Astronomy

Aug. 31, 2019 Rise Set
Actual Time 6:19 AM CDT 7:36 PM CDT
Civil Twilight 5:49 AM CDT 8:06 PM CDT
Nautical Twilight 5:12 AM CDT 8:42 PM CDT
Astronomical Twilight 4:34 AM CDT 9:21 PM CDT
Moon 7:36 AM CDT (8/31) 8:46 PM CDT (8/31)
Length of Visible Light 14h 17m
Length of Day
13h 17m
New Moon, 3% of the Moon is Illuminated
Aug 31
New Moon
Sep 5
First Quarter
Sep 13
Full
Sep 21
Last Quarter
Sep 28
New

Hourly Weather History & Observations

Time (CDT) Temp. Dew Point Humidity Pressure Visibility Wind Dir Wind Speed Gust Speed Precip Events Conditions
12:15 AM 44.1 °F 44.1 °F 100% 30.27 in 10.0 mi Calm Calm - N/A   Clear
12:35 AM 45.1 °F 45.1 °F 100% 30.28 in 10.0 mi Calm Calm - N/A   Clear
12:55 AM 42.8 °F 42.8 °F 100% 30.28 in 10.0 mi Calm Calm - N/A   Clear
1:15 AM 43.0 °F 43.0 °F 100% 30.28 in 10.0 mi Calm Calm - N/A   Clear
1:35 AM 43.0 °F 43.0 °F 100% 30.28 in 10.0 mi Calm Calm - N/A   Clear
1:55 AM 43.5 °F 43.5 °F 100% 30.28 in 10.0 mi Calm Calm - N/A   Clear
2:15 AM 42.4 °F 42.4 °F 100% 30.28 in 10.0 mi Calm Calm - N/A   Clear
2:35 AM 41.2 °F 41.2 °F 100% 30.28 in 10.0 mi Calm Calm - N/A   Clear
2:55 AM 41.9 °F 41.9 °F 100% 30.29 in 10.0 mi Calm Calm - N/A   Clear
3:35 AM 41.2 °F 41.2 °F 100% 30.29 in 10.0 mi Calm Calm - N/A   Clear
3:55 AM 42.1 °F 42.1 °F 100% 30.30 in 10.0 mi Calm Calm - N/A   Clear
4:15 AM 43.0 °F 43.0 °F 100% 30.29 in 10.0 mi Calm Calm - N/A   Clear
4:35 AM 43.7 °F 43.7 °F 100% 30.30 in 10.0 mi Calm Calm - N/A   Clear
4:55 AM 43.9 °F 43.9 °F 100% 30.30 in 10.0 mi Calm Calm - N/A   Clear
5:15 AM 44.1 °F 44.1 °F 100% 30.30 in 10.0 mi Calm Calm - N/A   Clear
5:35 AM 43.2 °F 43.2 °F 100% 30.30 in 10.0 mi Calm Calm - N/A   Clear
5:55 AM 43.9 °F 43.9 °F 100% 30.31 in 10.0 mi Calm Calm - N/A   Clear
6:15 AM 44.6 °F 44.6 °F 100% 30.31 in 10.0 mi Calm Calm - N/A   Clear
6:35 AM 42.6 °F 42.6 °F 100% 30.32 in 10.0 mi Calm Calm - N/A   Clear
6:55 AM 43.5 °F 43.5 °F 100% 30.32 in 10.0 mi Calm Calm - N/A   Clear
7:15 AM 45.1 °F 45.1 °F 100% 30.31 in 10.0 mi Calm Calm - N/A   Clear
7:35 AM 46.8 °F 46.2 °F 98% 30.31 in 10.0 mi Calm Calm - N/A   Clear
7:55 AM 48.9 °F 46.9 °F 93% 30.32 in 10.0 mi Calm Calm - N/A   Clear
8:15 AM 50.9 °F 47.8 °F 89% 30.32 in 10.0 mi Calm Calm - N/A   Clear
8:35 AM 52.2 °F 48.6 °F 88% 30.32 in 10.0 mi Calm Calm - N/A   Clear
8:55 AM 53.6 °F 48.7 °F 84% 30.32 in 10.0 mi Calm Calm - N/A   Clear
9:15 AM 55.2 °F 50.4 °F 84% 30.32 in 10.0 mi Calm Calm - N/A   Clear
9:35 AM 57.6 °F 50.2 °F 76% 30.32 in 10.0 mi Calm Calm - N/A   Clear
9:55 AM 58.1 °F 49.5 °F 73% 30.32 in 10.0 mi Calm Calm - N/A   Clear
10:15 AM 59.0 °F 50.0 °F 72% 30.33 in 10.0 mi Calm Calm - N/A   Clear
10:35 AM 60.3 °F 50.0 °F 69% 30.33 in 10.0 mi Calm Calm - N/A   Clear
10:55 AM 61.9 °F 48.9 °F 62% 30.33 in 10.0 mi Calm Calm - N/A   Clear
11:15 AM 63.3 °F 48.7 °F 59% 30.33 in 10.0 mi South 4.6 mph - N/A   Clear
11:35 AM 63.7 °F 47.5 °F 56% 30.33 in 10.0 mi South 4.6 mph - N/A   Clear
11:55 AM 65.1 °F 48.4 °F 55% 30.33 in 10.0 mi SSW 8.1 mph - N/A   Clear
12:15 PM 65.8 °F 45.5 °F 48% 30.33 in 10.0 mi SSW 9.2 mph - N/A   Clear
12:35 PM 67.8 °F 45.7 °F 45% 30.32 in 10.0 mi South 11.5 mph - N/A   Clear
12:55 PM 66.6 °F 46.0 °F 48% 30.33 in 10.0 mi SSW 10.4 mph - N/A   Scattered Clouds
1:15 PM 65.7 °F 43.3 °F 44% 30.33 in 10.0 mi SSW 11.5 mph - N/A   Mostly Cloudy
1:35 PM 65.5 °F 45.3 °F 48% 30.32 in 10.0 mi SSW 10.4 mph - N/A   Mostly Cloudy
1:55 PM 65.7 °F 46.6 °F 50% 30.31 in 10.0 mi SSW 10.4 mph - N/A   Mostly Cloudy
2:15 PM 65.5 °F 45.5 °F 48% 30.31 in 10.0 mi SSW 9.2 mph - N/A   Scattered Clouds
2:35 PM 65.3 °F 46.4 °F 50% 30.31 in 10.0 mi South 8.1 mph - N/A   Mostly Cloudy
2:55 PM 64.8 °F 46.2 °F 51% 30.30 in 10.0 mi SSE 6.9 mph - N/A   Overcast
3:15 PM 64.8 °F 47.5 °F 53% 30.30 in 10.0 mi SE 3.5 mph - N/A   Overcast
3:35 PM 65.7 °F 48.4 °F 54% 30.29 in 10.0 mi SE 6.9 mph - N/A   Overcast
3:55 PM 66.4 °F 48.4 °F 52% 30.29 in 10.0 mi SSE 10.4 mph - N/A   Overcast
4:15 PM 66.9 °F 46.4 °F 48% 30.29 in 10.0 mi SE 6.9 mph - N/A   Mostly Cloudy
4:35 PM 68.0 °F 47.7 °F 48% 30.28 in 10.0 mi SSE 5.8 mph - N/A   Mostly Cloudy
4:55 PM 67.3 °F 46.4 °F 47% 30.28 in 10.0 mi SE 5.8 mph - N/A   Scattered Clouds
5:15 PM 66.2 °F 46.6 °F 49% 30.27 in 10.0 mi South 8.1 mph - N/A   Clear
5:35 PM 65.7 °F 48.2 °F 53% 30.27 in 10.0 mi SE 5.8 mph - N/A   Scattered Clouds
5:55 PM 66.0 °F 48.7 °F 54% 30.27 in 10.0 mi SSE 5.8 mph - N/A   Scattered Clouds
6:15 PM 64.8 °F 49.5 °F 58% 30.26 in 10.0 mi SSE 6.9 mph - N/A   Scattered Clouds
6:35 PM 63.0 °F 49.6 °F 62% 30.27 in 10.0 mi SSE 3.5 mph - N/A   Mostly Cloudy
6:55 PM 61.9 °F 50.2 °F 65% 30.27 in 10.0 mi Calm Calm - N/A   Scattered Clouds
7:15 PM 61.0 °F 49.8 °F 67% 30.26 in 10.0 mi SE 3.5 mph - N/A   Clear
7:35 PM 59.4 °F 50.2 °F 72% 30.26 in 10.0 mi ESE 3.5 mph - N/A   Clear
7:55 PM 57.6 °F 51.1 °F 79% 30.26 in 10.0 mi East 3.5 mph - N/A   Clear
8:15 PM 56.5 °F 50.9 °F 82% 30.26 in 10.0 mi ESE 3.5 mph - N/A   Clear
8:35 PM 55.9 °F 51.1 °F 84% 30.26 in 10.0 mi East 3.5 mph - N/A   Clear
8:55 PM 55.0 °F 50.9 °F 86% 30.26 in 10.0 mi Calm Calm - N/A   Clear
9:15 PM 54.5 °F 50.2 °F 85% 30.26 in 10.0 mi Calm Calm - N/A   Clear
9:35 PM 53.8 °F 49.3 °F 85% 30.26 in 10.0 mi Calm Calm - N/A   Clear
9:55 PM 54.3 °F 50.0 °F 85% 30.27 in 10.0 mi Calm Calm - N/A   Clear
10:15 PM 51.1 °F 49.8 °F 95% 30.27 in 10.0 mi Calm Calm - N/A   Clear
10:35 PM 49.1 °F 49.1 °F 100% 30.27 in 10.0 mi Calm Calm - N/A   Clear
10:55 PM 50.4 °F 50.2 °F 99% 30.27 in 10.0 mi Calm Calm - N/A   Clear
11:15 PM 49.3 °F 48.6 °F 97% 30.27 in 10.0 mi Calm Calm - N/A   Clear
11:35 PM 48.0 °F 48.0 °F 100% 30.27 in 10.0 mi Calm Calm - N/A   Scattered Clouds
11:55 PM 48.2 °F 48.2 °F 100% 30.27 in 10.0 mi Calm Calm - N/A   Clear